This is the latest recevied weather packets stored in our database for station/object WA6ODQ-13. If no packets are shown the sender has not sent any weather packets the latest 10 day(s).
| Time | Temp. | Humidity | Pressure | Rain* | Wind** | Luminosity | Snow |
|---|---|---|---|---|---|---|---|
| 1788457012 | 19.44° C | 78% | 1012.7 hPa | 0 mm | - | 139 W/m² | - |
| 1788456708 | 18.89° C | 79% | 1012.8 hPa | 0 mm | - | 125 W/m² | - |
| 1788456407 | 19.44° C | 78% | 1012.7 hPa | 0 mm | - | 106 W/m² | - |
| 1788456099 | 18.89° C | 78% | 1012.9 hPa | 0 mm | - | 144 W/m² | - |
| 1788455798 | 18.89° C | 79% | 1012.8 hPa | 0 mm | - | 121 W/m² | - |
| 1788455495 | 18.89° C | 79% | 1012.7 hPa | 0 mm | - | 138 W/m² | - |
| 1788455193 | 18.89° C | 79% | 1012.8 hPa | 0 mm | - | 108 W/m² | - |
| 1788454889 | 18.89° C | 80% | 1013 hPa | 0 mm | - | 121 W/m² | - |
| 1788454587 | 18.33° C | 80% | 1012.9 hPa | 0 mm | - | 121 W/m² | - |
| 1788454282 | 18.33° C | 81% | 1012.9 hPa | 0 mm | - | 94 W/m² | - |
| 1788453977 | 18.33° C | 81% | 1013 hPa | 0 mm | - | 84 W/m² | - |
| 1788453672 | 18.33° C | 82% | 1013 hPa | 0 mm | - | 71 W/m² | - |
| 1788453367 | 18.33° C | 83% | 1013 hPa | 0 mm | - | 59 W/m² | - |
| 1788453063 | 18.33° C | 83% | 1013.1 hPa | 0 mm | - | 44 W/m² | - |
| 1788452759 | 17.78° C | 83% | 1013.1 hPa | 0 mm | - | 49 W/m² | - |
| 1788452455 | 17.78° C | 84% | 1013 hPa | 0 mm | - | 55 W/m² | - |
| 1788452150 | 17.78° C | 84% | 1013.2 hPa | 0 mm | - | 51 W/m² | - |
| 1788451846 | 17.78° C | 84% | 1013.2 hPa | 0 mm | - | 50 W/m² | - |
| 1788451545 | 17.78° C | 84% | 1013.2 hPa | 0 mm | - | 54 W/m² | - |
| 1788451239 | 17.78° C | 84% | 1013.2 hPa | 0 mm | - | 55 W/m² | - |
| 1788450938 | 17.78° C | 85% | 1013.2 hPa | 0 mm | - | 43 W/m² | - |
| 1788450634 | 17.78° C | 85% | 1013.1 hPa | 0 mm | - | 52 W/m² | - |
| 1788450330 | 17.78° C | 85% | 1013.3 hPa | 0 mm | - | 44 W/m² | - |
| 1788450026 | 17.78° C | 86% | 1013.3 hPa | 0 mm | - | 41 W/m² | - |
| 1788449721 | 17.22° C | 86% | 1013.4 hPa | 0 mm | - | 38 W/m² | - |
* Rain latest hour (hover to see other rain measurements)
** Current wind speed in m/s (hover to see current wind gust speed)